Location: Cabeza de los Veneras
(40.2000°N, 5.2000°W)
Time: 03:03:36
(UTC+00:00)

Cosmos 2227 Rocket - Pass Details

Date: 18 April 2024
Orbit: 837 x 846 km, 71.0° (Epoch: 25 May)

Event Time Altitude Azimuth Distance (km) Brightness Sun altitude
Rises 21:46:46 0° 339° (NNW) 3,414 6.4 -27.5°
Reaches altitude 10° 21:49:15 10° 342° (NNW) 2,475 5.4 -27.8°
Enters shadow 21:54:28 64° 37° (NE) 935 2.3 -28.5°
